Location: Newark
(49.5647°N, 8.2922°E)
Time: 18:39:34
(UTC+00:00)

Transit 2A - Pass Details

Date: 23 February 2020
Orbit: 597 x 962 km, 66.7° (Epoch: 03 April)

Event Time Altitude Azimuth Distance (km) Brightness Sun altitude
Rises 11:39:41 0° 181° (S) 2,829 10.1 30.5°
Reaches altitude 10° 11:42:12 10° 168° (SSE) 1,927 9.6 30.5°
Maximum altitude 11:45:43 25° 112° (ESE) 1,224 7.6 30.5°
Drops below altitude 10° 11:49:19 10° 57° (ENE) 1,981 7.9 30.5°
Sets 11:51:56 0° 45° (NE) 2,929 8.6 30.5°
